Philadelphia Wings Airport, PA

9:17 PM EST on December 15, 2017 (GMT -0500)
Philadelphia Wings Airport

Weather History for KLOM - May, 2014

Change the Weather History Date:

Wednesday, May 7, 2014

  Actual Average (KPNE) Record (KPNE)
Temperature  
Mean Temperature 56 °F -  
Max Temperature 68 °F 69 °F 91 °F (2000)
Min Temperature 44 °F 48 °F 39 °F (1997)
Degree Days  
Heating Degree Days 9    
Growing Degree Days 6 (Base 50)    
Moisture  
Dew Point 36 °F    
Average Humidity 47    
Maximum Humidity 67    
Minimum Humidity 26    
Precipitation  
Precipitation 0.00 in - - ()
Sea Level Pressure  
Sea Level Pressure 30.18 in    
Wind  
Wind Speed 1 mph (South)    
Max Wind Speed 7 mph    
Max Gust Speed -    
Visibility 10 miles    
Events      
Averages and records for this station are not official NWS values.
T = Trace of Precipitation, MM = Missing Value Source: NWS Daily Summary

Daily Weather History Graph

Daily Weather History Graph

Search for Another Location

Airport or City:

Trip Planner

Search our weather history database for the weather conditions in past years. The results will help you decide how hot, cold, wet, or windy it might be!

Date:

Astronomy

May. 07, 2014 Rise Set
Actual Time 5:53 AM EDT 8:02 PM EDT
Civil Twilight 5:23 AM EDT 8:32 PM EDT
Nautical Twilight 4:47 AM EDT 9:09 PM EDT
Astronomical Twilight 4:07 AM EDT 9:49 PM EDT
Moon 1:04 PM EDT (5/7) 1:51 AM EDT (5/7)
Length of Visible Light 15h 08m
Length of Day
14h 08m
First Quarter, 55% of the Moon is Illuminated
May 7
First Quarter
May 14
Full
May 21
Last Quarter
May 28
New
Jun 5
First Quarter

Hourly Weather History & Observations

Time (EDT) Temp. Dew Point Humidity Pressure Visibility Wind Dir Wind Speed Gust Speed Precip Events Conditions
12:15 AM 51.8 °F 35.6 °F 54% 30.09 in 10.0 mi Calm Calm - N/A   Clear
12:35 AM 50.0 °F 33.8 °F 54% 30.10 in 10.0 mi Calm Calm - N/A   Clear
12:55 AM 48.2 °F 35.6 °F 62% 30.10 in 10.0 mi Calm Calm - N/A   Clear
1:15 AM 50.0 °F 35.6 °F 58% 30.11 in 10.0 mi Calm Calm - N/A   Clear
1:35 AM 53.6 °F 32.0 °F 44% 30.11 in 10.0 mi Calm Calm - N/A   Clear
1:55 AM 50.0 °F 32.0 °F 50% 30.11 in 10.0 mi Calm Calm - N/A   Clear
2:15 AM 48.2 °F 37.4 °F 66% 30.11 in 10.0 mi Calm Calm - N/A   Clear
2:35 AM 46.4 °F 35.6 °F 66% 30.11 in 10.0 mi Calm Calm - N/A   Clear
2:55 AM 48.2 °F 33.8 °F 58% 30.12 in 10.0 mi Calm Calm - N/A   Clear
3:15 AM 46.4 °F 35.6 °F 66% 30.13 in 10.0 mi Calm Calm - N/A   Clear
3:35 AM 50.0 °F 32.0 °F 50% 30.14 in 10.0 mi Calm Calm - N/A   Clear
3:55 AM 48.2 °F 33.8 °F 58% 30.14 in 10.0 mi Calm Calm - N/A   Clear
4:15 AM 50.0 °F 32.0 °F 50% 30.15 in 10.0 mi Calm Calm - N/A   Clear
4:35 AM 50.0 °F 32.0 °F 50% 30.14 in 10.0 mi Calm Calm - N/A   Clear
4:55 AM 44.6 °F 32.0 °F 61% 30.15 in 10.0 mi Calm Calm - N/A   Clear
5:15 AM 44.6 °F 33.8 °F 66% 30.16 in 10.0 mi Calm Calm - N/A   Clear
5:35 AM 46.4 °F 32.0 °F 57% 30.16 in 10.0 mi Calm Calm - N/A   Clear
5:55 AM 44.6 °F 32.0 °F 61% 30.16 in 10.0 mi Calm Calm - N/A   Clear
6:15 AM 44.6 °F 33.8 °F 66% 30.17 in 10.0 mi Calm Calm - N/A   Clear
6:35 AM 46.4 °F 33.8 °F 62% 30.18 in 10.0 mi Calm Calm - N/A   Clear
6:55 AM 50.0 °F 33.8 °F 54% 30.17 in 10.0 mi ENE 3.5 mph - N/A   Clear
7:15 AM 51.8 °F 33.8 °F 50% 30.18 in 10.0 mi Calm Calm - N/A   Clear
7:35 AM 53.6 °F 32.0 °F 44% 30.19 in 10.0 mi Calm Calm - N/A   Clear
7:55 AM 53.6 °F 32.0 °F 44% 30.21 in 10.0 mi ENE 4.6 mph - N/A   Clear
8:15 AM 55.4 °F 32.0 °F 41% 30.22 in 10.0 mi ENE 3.5 mph - N/A   Clear
8:35 AM 57.2 °F 32.0 °F 38% 30.23 in 10.0 mi ENE 6.9 mph - N/A   Clear
8:55 AM 59.0 °F 32.0 °F 36% 30.23 in 10.0 mi East 5.8 mph - N/A   Clear
9:15 AM 59.0 °F 32.0 °F 36% 30.24 in 10.0 mi ENE 4.6 mph - N/A   Clear
9:35 AM 60.8 °F 32.0 °F 34% 30.23 in 10.0 mi East 6.9 mph - N/A   Clear
9:55 AM 60.8 °F 32.0 °F 34% 30.23 in 10.0 mi ENE 6.9 mph - N/A   Clear
10:15 AM 60.8 °F 32.0 °F 34% 30.24 in 10.0 mi Calm Calm - N/A   Clear
10:35 AM 62.6 °F 32.0 °F 32% 30.24 in 10.0 mi Calm Calm - N/A   Clear
10:55 AM 62.6 °F 32.0 °F 32% 30.24 in 10.0 mi Calm Calm - N/A   Clear
11:15 AM 62.6 °F 32.0 °F 32% 30.23 in 10.0 mi Calm Calm - N/A   Clear
11:35 AM 64.4 °F 32.0 °F 30% 30.24 in 10.0 mi South 5.8 mph - N/A   Clear
11:55 AM 64.4 °F 32.0 °F 30% 30.24 in 7.0 mi Calm Calm - N/A   Scattered Clouds
12:15 PM 64.4 °F 32.0 °F 30% 30.23 in 10.0 mi Calm Calm - N/A   Clear
12:35 PM 64.4 °F 32.0 °F 30% 30.23 in 10.0 mi SW 3.5 mph - N/A   Clear
12:55 PM 64.4 °F 30.2 °F 28% 30.23 in 10.0 mi Calm Calm - N/A   Clear
1:15 PM 66.2 °F 32.0 °F 28% 30.21 in 10.0 mi Calm Calm - N/A   Clear
1:35 PM 68.0 °F 33.8 °F 28% 30.21 in 10.0 mi SW 3.5 mph - N/A   Clear
1:55 PM 66.2 °F 32.0 °F 28% 30.20 in 10.0 mi Calm Calm - N/A   Scattered Clouds
2:15 PM 68.0 °F 32.0 °F 26% 30.19 in 10.0 mi SSE 5.8 mph - N/A   Scattered Clouds
2:35 PM 68.0 °F 32.0 °F 26% 30.19 in 10.0 mi SSW 4.6 mph - N/A   Scattered Clouds
2:55 PM 66.2 °F 32.0 °F 28% 30.19 in 10.0 mi SSW 4.6 mph - N/A   Mostly Cloudy
3:15 PM 66.2 °F 32.0 °F 28% 30.19 in 10.0 mi SSW 4.6 mph - N/A   Overcast
3:35 PM 64.4 °F 32.0 °F 30% 30.18 in 10.0 mi SSW 4.6 mph - N/A   Mostly Cloudy
3:55 PM 66.2 °F 32.0 °F 28% 30.18 in 10.0 mi SW 6.9 mph - N/A   Scattered Clouds
4:15 PM 66.2 °F 32.0 °F 28% 30.19 in 10.0 mi WSW 5.8 mph - N/A   Scattered Clouds
4:35 PM 66.2 °F 32.0 °F 28% 30.18 in 10.0 mi SW 6.9 mph - N/A   Mostly Cloudy
4:55 PM 64.4 °F 32.0 °F 30% 30.18 in 10.0 mi SW 5.8 mph - N/A   Mostly Cloudy
5:15 PM 64.4 °F 35.6 °F 34% 30.19 in 10.0 mi SW 6.9 mph - N/A   Overcast
5:35 PM 62.6 °F 37.4 °F 39% 30.19 in 10.0 mi SSW 6.9 mph - N/A   Overcast
5:55 PM 60.8 °F 37.4 °F 42% 30.18 in 10.0 mi SSW 3.5 mph - N/A   Overcast
6:15 PM 60.8 °F 37.4 °F 42% 30.19 in 10.0 mi SSW 4.6 mph - N/A   Overcast
6:35 PM 60.8 °F 39.2 °F 45% 30.20 in 10.0 mi Calm Calm - N/A   Overcast
6:55 PM 60.8 °F 41.0 °F 48% 30.20 in 10.0 mi Calm Calm - N/A   Overcast
7:15 PM 60.8 °F 41.0 °F 48% 30.20 in 10.0 mi Calm Calm - N/A   Overcast
7:35 PM 59.0 °F 46.4 °F 63% 30.19 in 10.0 mi SSE 3.5 mph - N/A   Overcast
7:55 PM 57.2 °F 46.4 °F 67% 30.19 in 10.0 mi Calm Calm - N/A   Mostly Cloudy
8:15 PM 57.2 °F 46.4 °F 67% 30.20 in 10.0 mi Calm Calm - N/A   Mostly Cloudy
8:35 PM 57.2 °F 46.4 °F 67% 30.21 in 10.0 mi Calm Calm - N/A   Overcast
8:55 PM 57.2 °F 44.6 °F 63% 30.19 in 10.0 mi Calm Calm - N/A   Overcast
9:15 PM 57.2 °F 44.6 °F 63% 30.19 in 10.0 mi Calm Calm - N/A   Overcast
9:35 PM 57.2 °F 46.4 °F 67% 30.19 in 10.0 mi Calm Calm - N/A   Overcast
9:55 PM 57.2 °F 46.4 °F 67% 30.20 in 10.0 mi Calm Calm - N/A   Overcast
10:15 PM 57.2 °F 46.4 °F 67% 30.20 in 10.0 mi Calm Calm - N/A   Overcast
10:35 PM 57.2 °F 46.4 °F 67% 30.20 in 10.0 mi Calm Calm - N/A   Overcast
10:55 PM 57.2 °F 46.4 °F 67% 30.19 in 10.0 mi Calm Calm - N/A   Overcast
11:15 PM 57.2 °F 46.4 °F 67% 30.18 in 10.0 mi Calm Calm - N/A   Overcast
11:35 PM 57.2 °F 44.6 °F 63% 30.18 in 10.0 mi Calm Calm - N/A   Overcast
11:55 PM 57.2 °F 44.6 °F 63% 30.18 in 10.0 mi Calm Calm - N/A   Overcast